Showing default

FLOCK 1C 9, 40035

Orbit data source: Space-Track

FLOCK 1C 9, 40035 is a payload satellite owned by Planet Labs (US) in SSO that was launched on Thu, 19 Jun 2014 UTC via a DNEPR launch vehicle from the Orenburg, Russia (OREN). Payloads include a variety of satellites, spacecraft, and rockets equipped with specific instruments for various scientific and technological missions. These include communications satellites like Starlink; space stations such as the ISS; scientific satellites like the Hubble; Earth observation satellites from companies like Planet Labs, Umbra, and HawkEye 360; GPS; miniature CubeSats for education and research; and military/defense satellites.

Loading next visibility...
FLOCK 1C 9 details
Identifier
40035, 2014-033AB
Orbit
SSO
Last TLE update15 hours ago
Origin
Flag of USPlanet Labs (US)
ManufacturerPlanet Labs
MissionNon-operational Commercial Imaging
Bus & MotorCUBESAT 3U, Unknown motor
Mass4.25 kg wet, 4.25 kg dry
Launch date (UTC)
2014-06-19 (11 years ago)
Launch vehicle
DNEPR
Launch site
Orenburg, Russia (OREN)
Object type
Payload
Rocket body
Debris
Shape & HBRBox + 2 Pan, 0.3 m
Radar Cross Section0.108 m², Small (<0.1 m²)

Expand to show TLE details & history

TLE from 15 hours ago
0 FLOCK 1C 9
1 40035U 14033AB  24360.98044223  .00294012  00000-0  34901-2 0  9997
2 40035  98.0712   4.3400 0008811 100.2952 259.9297 15.60168023573054
Epoch: 2024-12-25T23:31Z
Definitive object data (Epoch: 2024-12-25T23:31:50.208Z)
Latitude-0°
Longitude-83.58561°
Altitude391.343 km
Speed7.675 km/s
True Right ascension00h 17m 21s
True Declination0° 00' 00"
Sunlit
Object was in daylight at TLE epoch
Visualization TLE readout
Latitude-6.92509°
Longitude96.12677°
Altitude390.302 km
Speed7.676 km/s
Apparent Right ascension09h 46m 17s
Apparent Declination-61° 38' 59"
Sunlit
Object is in daylight
Visualization observer readout
Local Sidereal Time13:32:36
Azimuth205.186° SW
Elevation-21.353°
Doppler factor1
Orbital elements
Apogee altitude390.072 km
Perigee altitude378.156 km
Semi-major axis6,762.251 km
Eccentricity0.0008811
Inclination98.0712°
RAAN4.34°
Arg. of periapsis100.2952°
True anomaly259.83031°
Mean anomaly259.9297°
Eccentric anomaly259.88°
Mean motion3.90307 °/min
BSTAR0.0034901
Orbital period92.24 mins
Loading maneuver chart data...
Loading historical data...
Loading historical data...
Loading historical data...
Loading historical data...
Loading historical data...
Loading historical data...
Loading historical data...

FLOCK 1C 9 Visibility forecast

Observer location: undefined°, undefined

Span
Click to sort rows by Start time (UTC) header in descending order
Start Az.
Max El. time (UTC)
Max El. Az.
Max El.
End time (UTC)
End Az.
4 mins2024-12-27 00:17:48.325Z148.71° SSE2024-12-27 00:19:48.325Z68.996° E39.489°2024-12-27 00:21:48.325Z0.215° NNE
|